Location: Pilipovskiye Korichintsy
(49.1833°N, 27.4667°E)
Time: 22:21:43
(UTC+00:00)

COSMOS 2406 - Pass Details

Date: 14 July 2020
Orbit: 844 x 863 km, 71.0° (Epoch: 10 August)

Event Time Altitude Azimuth Distance (km) Brightness Sun altitude
Exits shadow 00:49:37 14° 232° (SW) 2,236 4.8 -11.4°
Maximum altitude 00:54:28 50° 305° (NW) 1,087 3.8 -10.9°
Drops below altitude 10° 01:00:04 10° 21° (NNE) 2,510 7.0 -10.3°
Sets 01:02:38 0° 27° (NNE) 3,448 8.3 -10.1°
